sat.trackr.live / text

‹ back to catalog

O3B FM10

NORAD 40348 · 2014-083A

PAYLOAD ACTIVE UNKNOWN

§ Identity

Operator
Country
O3B
Launch date
2014-12-18
Launch site
FRGUI
Launch vehicle
Mass (kg)
RCS (m²)
0.50

Purposes: comms

External: N2YO · Heavens-Above · Gunter

§ Orbital elements

Epoch: 2026-05-24T18:31:56.871264Z

Period
287.93 min
Inclination
0.0437°
Eccentricity
0.0002734
Mean motion
5.00115328 rev/d
Perigee alt
8,061.9 km
Apogee alt
8,069.8 km
Semi-major
14,444.0 km
B*
0.0000e+0
RAAN
329.9798°
Arg perigee
91.9997°
Mean anomaly
298.0474°
Rev number
20,872

§ Raw data

O3B FM101 40348U 14083A   26144.77218601 -.00000024  00000+0  00000+0 0  99992 40348   0.0437 329.9798 0002734  91.9997 298.0474  5.00115328208720

JSON: /api/v1/satellites/40348 · /tle

For live sub-satellite position, see the globe view (requires WebGL).

§ Visibility from observer

Set your observer location to see the next 7 days of passes ≥ 10°. The values pass through the URL so the page stays shareable.

No JS? Fill the form by hand. The geolocation button needs JavaScript.